K6OUA-11 Weather Reports


Display with metric or nautical units.
time (UTC)temp
F
wind
direction
speed
MPH
gust
MPH
rain 1hr
in
rain 24hr
in
rain mn
in
humidity
%
barometer
mb
20190824085635 60 231 0.0 1.0 0.00 0.00 0.00 91 1007.1
20190824085334 60 254 0.0 0.0 0.00 0.00 0.00 91 1007.1
20190824084733 60 270 0.0 1.0 0.00 0.00 0.00 90 1007.2
20190824084433 60 247 0.0 0.0 0.00 0.00 0.00 90 1007.2
20190824084130 60 247 0.0 0.0 0.00 0.00 0.00 91 1007.2
20190824083829 60 270 0.0 0.0 0.00 0.00 0.00 90 1007.2
20190824083227 60 247 0.0 0.0 0.00 0.00 0.00 90 1007.1
20190824082925 60 247 0.0 0.0 0.00 0.00 0.00 90 1007.1
20190824082624 60 247 0.0 0.0 0.00 0.00 0.00 90 1007.1
20190824082325 61 270 0.0 1.0 0.00 0.00 0.00 90 1007.1
20190824081721 61 270 0.0 0.0 0.00 0.00 0.00 90 1007.1
20190824081420 61 247 0.0 0.0 0.00 0.00 0.00 90 1007.3
20190824081119 61 225 0.0 0.0 0.00 0.00 0.00 90 1007.2
20190824080818 61 225 0.0 0.0 0.00 0.00 0.00 90 1007.0
20190824080517 61 270 0.0 1.0 0.00 0.00 0.00 90 1007.0
20190824080215 61 270 0.0 1.0 0.00 0.00 0.00 90 1007.1
20190824075614 61 270 1.0 2.0 0.00 0.00 0.00 89 1007.0
20190824075312 61 225 1.0 1.0 0.00 0.00 0.00 89 1007.0
20190824075013 61 247 0.0 1.0 0.00 0.00 0.00 89 1007.0
20190824074712 61 225 1.0 1.0 0.00 0.00 0.00 88 1006.7
20190824074409 61 225 0.0 1.0 0.00 0.00 0.00 89 1006.9
20190824074109 61 247 0.0 1.0 0.00 0.00 0.00 89 1006.9
20190824073807 61 270 0.0 0.0 0.00 0.00 0.00 89 1006.8
20190824073507 61 270 0.0 0.0 0.00 0.00 0.00 88 1006.9
20190824073206 61 270 0.0 0.0 0.00 0.00 0.00 88 1006.7
20190824072603 61 225 0.0 0.0 0.00 0.00 0.00 88 1006.7
20190824072301 61 270 0.0 1.0 0.00 0.00 0.00 89 1006.6
20190824072000 61 270 1.0 1.0 0.00 0.00 0.00 88 1006.7
20190824071659 61 270 0.0 0.0 0.00 0.00 0.00 88 1006.7
20190824071400 61 247 0.0 0.0 0.00 0.00 0.00 88 1006.5
20190824071057 61 247 0.0 0.0 0.00 0.00 0.00 88 1006.8
20190824070758 61 270 0.0 0.0 0.00 0.00 0.00 87 1006.9
20190824070155 61 270 0.0 0.0 0.00 0.00 0.00 88 1006.7
20190824065854 62 270 0.0 0.0 0.00 0.00 0.00 87 1006.8
20190824065252 62 270 0.0 1.0 0.00 0.00 0.00 87 1006.7
20190824064950 62 270 0.0 0.0 0.00 0.00 0.00 86 1006.3
20190824064349 62 247 0.0 0.0 0.00 0.00 0.00 86 1006.4
20190824064047 62 247 0.0 0.0 0.00 0.00 0.00 86 1006.1
20190824063746 62 247 0.0 0.0 0.00 0.00 0.00 85 1006.2
20190824063445 62 247 0.0 0.0 0.00 0.00 0.00 85 1006.3
20190824063144 62 225 0.0 0.0 0.00 0.00 0.00 85 1006.5
20190824062841 62 247 0.0 0.0 0.00 0.00 0.00 85 1006.2
20190824062241 62 270 1.0 1.0 0.00 0.00 0.00 86 1006.2
20190824061938 62 270 1.0 1.0 0.00 0.00 0.00 85 1006.2
20190824061637 62 270 0.0 1.0 0.00 0.00 0.00 85 1006.2
20190824061036 63 270 0.0 0.0 0.00 0.00 0.00 85 1006.1
20190824060434 63 270 0.0 0.0 0.00 0.00 0.00 84 1006.1
20190824060131 63 247 0.0 0.0 0.00 0.00 0.00 84 1006.0
20190824055830 63 225 0.0 0.0 0.00 0.00 0.00 84 1006.0
20190824055531 63 225 0.0 1.0 0.00 0.00 0.00 84 1006.0
20190824055228 63 247 0.0 0.0 0.00 0.00 0.00 84 1005.9
20190824054929 63 247 0.0 0.0 0.00 0.00 0.00 84 1006.2
20190824054626 64 270 0.0 1.0 0.00 0.00 0.00 83 1006.1
20190824054325 64 252 0.0 1.0 0.00 0.00 0.00 84 1006.0
20190824054024 64 270 1.0 2.0 0.00 0.00 0.00 84 1005.8
20190824053423 64 270 1.0 3.0 0.00 0.00 0.00 84 1005.8
20190824053122 64 270 2.0 3.0 0.00 0.00 0.00 84 1005.8
20190824052217 64 270 0.0 0.0 0.00 0.00 0.00 82 1005.5
20190824051917 64 270 0.0 1.0 0.00 0.00 0.00 83 1005.4
20190824051013 64 270 0.0 1.0 0.00 0.00 0.00 82 1005.4
20190824050410 64 254 0.0 1.0 0.00 0.00 0.00 82 1005.2
20190824050109 64 267 0.0 1.0 0.00 0.00 0.00 82 1005.3
20190824045809 64 270 0.0 1.0 0.00 0.00 0.00 82 1005.3
20190824045509 64 247 0.0 1.0 0.00 0.00 0.00 82 1005.3
20190824045207 64 270 0.0 1.0 0.00 0.00 0.00 81 1005.3
20190824044605 64 247 1.0 1.0 0.00 0.00 0.00 81 1005.2
20190824044003 65 247 0.0 0.0 0.00 0.00 0.00 80 1005.2
20190824043702 65 247 0.0 1.0 0.00 0.00 0.00 80 1005.3
20190824043401 65 247 0.0 1.0 0.00 0.00 0.00 80 1005.2
20190824042759 65 247 0.0 0.0 0.00 0.00 0.00 79 1005.2
20190824042458 65 225 0.0 1.0 0.00 0.00 0.00 79 1005.2
20190824042155 65 225 0.0 1.0 0.00 0.00 0.00 79 1005.2
20190824041854 65 247 0.0 1.0 0.00 0.00 0.00 79 1005.2
20190824041553 65 247 0.0 1.0 0.00 0.00 0.00 78 1005.3
20190824040649 66 247 1.0 1.0 0.00 0.00 0.00 78 1005.2
20190824040348 66 247 0.0 0.0 0.00 0.00 0.00 77 1005.0
20190824040049 66 247 0.0 0.0 0.00 0.00 0.00 76 1005.0
20190824035747 66 247 0.0 1.0 0.00 0.00 0.00 77 1004.9
20190824035447 67 225 0.0 1.0 0.00 0.00 0.00 76 1005.0
20190824035146 67 225 0.0 1.0 0.00 0.00 0.00 76 1004.9
20190824034542 67 225 0.0 0.0 0.00 0.00 0.00 76 1004.7
20190824034241 67 225 0.0 1.0 0.00 0.00 0.00 76 1004.6
20190824033941 67 225 0.0 1.0 0.00 0.00 0.00 75 1004.5
20190824033640 67 263 1.0 1.0 0.00 0.00 0.00 75 1004.8
20190824033339 68 245 1.0 2.0 0.00 0.00 0.00 75 1004.8
20190824033037 68 225 1.0 2.0 0.00 0.00 0.00 75 1004.7
20190824032435 68 267 1.0 2.0 0.00 0.00 0.00 75 1004.7
20190824032133 68 270 2.0 3.0 0.00 0.00 0.00 74 1004.6
20190824031531 69 270 4.0 5.0 0.00 0.00 0.00 74 1004.4
20190824031231 69 270 1.0 3.0 0.00 0.00 0.00 73 1004.5
20190824030928 69 270 1.0 3.0 0.00 0.00 0.00 72 1004.5
20190824030628 69 267 2.0 3.0 0.00 0.00 0.00 72 1004.5
20190824030326 69 261 2.0 3.0 0.00 0.00 0.00 72 1004.4
20190824030025 69 252 2.0 3.0 0.00 0.00 0.00 72 1004.5
20190824025724 70 270 2.0 3.0 0.00 0.00 0.00 72 1004.5
20190824025122 70 247 0.0 3.0 0.00 0.00 0.00 70 1004.3
20190824024821 70 225 2.0 3.0 0.00 0.00 0.00 70 1004.3
20190824024522 71 258 2.0 3.0 0.00 0.00 0.00 69 1004.3
20190824024218 71 225 1.0 2.0 0.00 0.00 0.00 69 1004.3
20190824023917 71 315 1.0 3.0 0.00 0.00 0.00 69 1004.2
20190824023618 71 225 2.0 4.0 0.00 0.00 0.00 68 1004.2
20190824023316 72 270 2.0 4.0 0.00 0.00 0.00 68 1004.2
20190824023014 72 270 3.0 4.0 0.00 0.00 0.00 68 1004.3
20190824022412 73 270 3.0 4.0 0.00 0.00 0.00 66 1004.0
20190824021508 74 294 4.0 6.0 0.00 0.00 0.00 65 1004.1
20190824021209 74 270 3.0 4.0 0.00 0.00 0.00 65 1004.0
20190824020906 74 270 2.0 3.0 0.00 0.00 0.00 64 1004.0
20190824020650 75 270 3.0 5.0 0.00 0.00 0.00 63 1004.0
20190824020605 74 265 3.0 3.0 0.00 0.00 0.00 64 1003.9
20190824020306 75 270 3.0 5.0 0.00 0.00 0.00 63 1004.1
20190824020005 75 270 3.0 5.0 0.00 0.00 0.00 63 1004.0
20190824015356 76 270 2.0 5.0 0.00 0.00 0.00 62 1004.0
20190824015055 76 303 4.0 4.0 0.00 0.00 0.00 61 1003.9
20190824014754 76 270 3.0 5.0 0.00 0.00 0.00 61 1003.9
20190824014452 76 274 5.0 5.0 0.00 0.00 0.00 60 1003.8
20190824014153 76 238 3.0 8.0 0.00 0.00 0.00 60 1003.9
20190824013852 77 225 4.0 5.0 0.00 0.00 0.00 60 1004.0
20190824013248 77 270 4.0 8.0 0.00 0.00 0.00 59 1004.1
20190824012947 78 263 4.0 6.0 0.00 0.00 0.00 58 1004.0
20190824012646 78 270 4.0 6.0 0.00 0.00 0.00 59 1004.0
20190824012045 78 256 4.0 5.0 0.00 0.00 0.00 58 1004.0
20190824011745 78 225 3.0 5.0 0.00 0.00 0.00 57 1004.0
20190824011443 78 227 3.0 5.0 0.00 0.00 0.00 57 1004.0
20190824011140 79 227 4.0 6.0 0.00 0.00 0.00 57 1003.9
20190824010841 79 238 5.0 6.0 0.00 0.00 0.00 56 1003.9
20190824010540 79 270 4.0 5.0 0.00 0.00 0.00 56 1004.1
20190824005937 80 243 4.0 8.0 0.00 0.00 0.00 55 1004.0
20190824005636 80 216 4.0 4.0 0.00 0.00 0.00 55 1004.0
20190824005336 81 225 4.0 5.0 0.00 0.00 0.00 54 1004.0
20190824005035 81 256 4.0 5.0 0.00 0.00 0.00 54 1004.0
20190824003828 83 235 3.0 5.0 0.00 0.00 0.00 52 1004.2
20190824003226 84 272 6.0 8.0 0.00 0.00 0.00 51 1004.1
20190824002926 84 276 8.0 8.0 0.00 0.00 0.00 52 1004.0
20190824002626 84 270 4.0 6.0 0.00 0.00 0.00 51 1004.0
20190824002324 84 231 4.0 6.0 0.00 0.00 0.00 50 1004.1
20190824001720 85 265 5.0 5.0 0.00 0.00 0.00 49 1004.1
20190824001420 85 225 2.0 6.0 0.00 0.00 0.00 50 1004.0
20190824001118 85 186 2.0 6.0 0.00 0.00 0.00 49 1004.0
20190824000819 85 245 5.0 7.0 0.00 0.00 0.00 50 1004.0
20190824000517 85 233 4.0 7.0 0.00 0.00 0.00 50 1004.0
20190824000217 85 239 1.0 6.0 0.00 0.00 0.00 50 1003.9
20190823235915 85 231 5.0 5.0 0.00 0.00 0.00 50 1004.0
20190823235613 85 229 6.0 7.0 0.00 0.00 0.00 50 1004.1
20190823235313 85 254 4.0 7.0 0.00 0.00 0.00 50 1004.1
20190823235012 85 222 4.0 6.0 0.00 0.00 0.00 49 1004.1
20190823234410 86 270 2.0 7.0 0.00 0.00 0.00 49 1004.1
20190823233808 86 249 5.0 9.0 0.00 0.00 0.00 49 1004.0
20190823233505 86 240 6.0 9.0 0.00 0.00 0.00 48 1004.1
20190823233206 86 270 8.0 8.0 0.00 0.00 0.00 49 1004.1
20190823232905 86 198 4.0 8.0 0.00 0.00 0.00 48 1004.1
20190823232602 86 225 4.0 5.0 0.00 0.00 0.00 48 1004.0
20190823232303 86 261 5.0 6.0 0.00 0.00 0.00 49 1004.0
20190823232002 86 249 5.0 7.0 0.00 0.00 0.00 48 1004.2
20190823231658 86 252 4.0 7.0 0.00 0.00 0.00 48 1004.2
20190823231357 86 222 2.0 6.0 0.00 0.00 0.00 48 1004.2
20190823231058 86 265 4.0 6.0 0.00 0.00 0.00 48 1004.2
20190823230456 86 238 4.0 7.0 0.00 0.00 0.00 48 1004.2
20190823230154 86 272 6.0 7.0 0.00 0.00 0.00 48 1004.3
20190823225853 86 270 4.0 7.0 0.00 0.00 0.00 48 1004.2
20190823225552 86 276 4.0 7.0 0.00 0.00 0.00 47 1004.3
20190823225250 86 256 5.0 7.0 0.00 0.00 0.00 48 1004.2
20190823224949 87 240 7.0 7.0 0.00 0.00 0.00 47 1004.2
20190823224647 87 270 6.0 7.0 0.00 0.00 0.00 47 1004.3
20190823224348 87 242 4.0 6.0 0.00 0.00 0.00 47 1004.3
20190823224048 87 283 4.0 9.0 0.00 0.00 0.00 47 1004.3
20190823223744 87 245 4.0 7.0 0.00 0.00 0.00 47 1004.3
20190823223443 87 256 6.0 7.0 0.00 0.00 0.00 47 1004.4
20190823222841 87 243 7.0 7.0 0.00 0.00 0.00 47 1004.6
20190823222542 87 245 6.0 8.0 0.00 0.00 0.00 46 1004.6
20190823222240 87 238 7.0 7.0 0.00 0.00 0.00 46 1004.6
20190823221939 88 265 5.0 8.0 0.00 0.00 0.00 46 1004.6
20190823221636 88 238 6.0 8.0 0.00 0.00 0.00 46 1004.6
20190823221335 88 258 5.0 9.0 0.00 0.00 0.00 46 1004.7
20190823220432 88 247 5.0 9.0 0.00 0.00 0.00 45 1004.7
20190823220131 89 254 7.0 7.0 0.00 0.00 0.00 44 1004.6
20190823215830 89 261 5.0 8.0 0.00 0.00 0.00 44 1004.7
20190823215529 89 252 6.0 11.0 0.00 0.00 0.00 44 1004.7
20190823215231 90 274 10.0 10.0 0.00 0.00 0.00 42 1004.5
20190823214927 90 252 4.0 8.0 0.00 0.00 0.00 43 1004.6
20190823214626 90 263 7.0 8.0 0.00 0.00 0.00 42 1004.7
20190823214025 91 263 7.0 7.0 0.00 0.00 0.00 42 1004.6
20190823213723 91 254 6.0 9.0 0.00 0.00 0.00 42 1004.6
20190823212821 92 252 6.0 8.0 0.00 0.00 0.00 41 1004.6
20190823212518 92 220 2.0 8.0 0.00 0.00 0.00 40 1004.8
20190823212217 93 256 6.0 6.0 0.00 0.00 0.00 40 1004.9
20190823211917 92 315 1.0 5.0 0.00 0.00 0.00 40 1004.9
20190823211616 92 0 3.0 5.0 0.00 0.00 0.00 38 1004.8
20190823210712 91 90 3.0 9.0 0.00 0.00 0.00 38 1004.9
20190823210411 91 45 6.0 13.0 0.00 0.00 0.00 37 1004.8
20190823210112 91 51 3.0 13.0 0.00 0.00 0.00 37 1005.0
20190823205809 91 180 1.0 3.0 0.00 0.00 0.00 39 1004.9
20190823205508 91 225 0.0 5.0 0.00 0.00 0.00 39 1005.0
20190823204906 91 108 2.0 6.0 0.00 0.00 0.00 39 1005.1
20190823204607 90 120 5.0 9.0 0.00 0.00 0.00 39 1005.2
20190823204304 90 51 6.0 9.0 0.00 0.00 0.00 37 1005.2
20190823204003 91 90 6.0 7.0 0.00 0.00 0.00 40 1005.1
20190823203702 90 135 2.0 5.0 0.00 0.00 0.00 40 1005.2
20190823203401 90 180 3.0 7.0 0.00 0.00 0.00 40 1005.3
20190823202456 90 47 4.0 8.0 0.00 0.00 0.00 40 1005.3
20190823202156 90 123 2.0 8.0 0.00 0.00 0.00 40 1005.4
20190823201855 90 90 2.0 8.0 0.00 0.00 0.00 40 1005.3
20190823201554 90 85 9.0 12.0 0.00 0.00 0.00 39 1005.5
20190823201251 90 42 4.0 7.0 0.00 0.00 0.00 41 1005.5
20190823200952 90 326 0.0 6.0 0.00 0.00 0.00 42 1005.6
20190823200651 90 42 4.0 9.0 0.00 0.00 0.00 41 1005.6
20190823200348 90 100 5.0 9.0 0.00 0.00 0.00 41 1005.6
20190823200048 90 85 6.0 6.0 0.00 0.00 0.00 42 1005.7
20190823195746 90 76 3.0 3.0 0.00 0.00 0.00 42 1005.8
20190823195445 90 247 2.0 3.0 0.00 0.00 0.00 43 1005.8
20190823195145 90 112 2.0 5.0 0.00 0.00 0.00 44 1005.7
20190823194843 89 123 3.0 5.0 0.00 0.00 0.00 44 1005.8
20190823194240 88 238 1.0 4.0 0.00 0.00 0.00 45 1005.9
20190823193939 88 135 0.0 4.0 0.00 0.00 0.00 46 1005.7
20190823193638 87 180 1.0 6.0 0.00 0.00 0.00 46 1005.8
20190823193337 87 135 5.0 8.0 0.00 0.00 0.00 46 1005.7
20190823193038 87 130 8.0 8.0 0.00 0.00 0.00 45 1005.8
20190823192736 87 121 7.0 8.0 0.00 0.00 0.00 45 1005.8
20190823192434 86 140 2.0 5.0 0.00 0.00 0.00 47 1006.0
20190823192133 86 135 3.0 3.0 0.00 0.00 0.00 48 1006.0
20190823191831 86 180 1.0 6.0 0.00 0.00 0.00 49 1006.0
20190823191532 85 135 1.0 5.0 0.00 0.00 0.00 48 1006.0
20190823191231 85 155 4.0 9.0 0.00 0.00 0.00 48 1006.0
20190823190930 85 76 6.0 9.0 0.00 0.00 0.00 47 1006.1
20190823190627 85 63 7.0 9.0 0.00 0.00 0.00 47 1006.1
20190823190025 85 85 2.0 4.0 0.00 0.00 0.00 49 1005.9
20190823185424 85 135 3.0 7.0 0.00 0.00 0.00 49 1006.1
20190823185123 84 90 3.0 6.0 0.00 0.00 0.00 52 1006.0
20190823184822 84 225 0.0 7.0 0.00 0.00 0.00 52 1006.0
20190823184521 84 108 4.0 7.0 0.00 0.00 0.00 51 1006.1
20190823184218 84 225 2.0 6.0 0.00 0.00 0.00 52 1006.2
20190823183616 83 173 3.0 4.0 0.00 0.00 0.00 54 1006.2
20190823183317 82 180 0.0 5.0 0.00 0.00 0.00 54 1006.0
20190823183016 82 211 1.0 4.0 0.00 0.00 0.00 53 1006.1
20190823182714 82 78 3.0 6.0 0.00 0.00 0.00 53 1006.1
20190823182413 82 90 3.0 8.0 0.00 0.00 0.00 53 1006.1
20190823182112 82 31 1.0 13.0 0.00 0.00 0.00 53 1006.2
20190823181210 82 130 5.0 7.0 0.00 0.00 0.00 56 1006.1
20190823180906 81 146 5.0 7.0 0.00 0.00 0.00 57 1006.2
20190823180607 81 117 3.0 8.0 0.00 0.00 0.00 56 1006.2
20190823180306 81 137 6.0 6.0 0.00 0.00 0.00 57 1006.1
20190823175702 80 126 6.0 6.0 0.00 0.00 0.00 58 1006.3
20190823175402 79 135 4.0 6.0 0.00 0.00 0.00 59 1006.3
20190823175059 79 139 4.0 8.0 0.00 0.00 0.00 59 1006.2
20190823174800 79 94 6.0 8.0 0.00 0.00 0.00 59 1006.3
20190823174158 79 90 3.0 9.0 0.00 0.00 0.00 60 1006.4
20190823173856 79 90 5.0 6.0 0.00 0.00 0.00 60 1006.4
20190823173555 78 135 4.0 6.0 0.00 0.00 0.00 61 1006.4
20190823173256 78 135 2.0 8.0 0.00 0.00 0.00 62 1006.3
20190823172953 78 94 3.0 8.0 0.00 0.00 0.00 62 1006.3
20190823172651 78 96 7.0 8.0 0.00 0.00 0.00 63 1006.2
20190823172351 78 112 5.0 6.0 0.00 0.00 0.00 64 1006.3
20190823172049 78 70 2.0 7.0 0.00 0.00 0.00 64 1006.4
20190823171145 77 110 6.0 8.0 0.00 0.00 0.00 64 1006.2
20190823170543 76 152 3.0 7.0 0.00 0.00 0.00 67 1006.5
20190823170242 76 130 2.0 7.0 0.00 0.00 0.00 68 1006.4
20190823165640 75 90 1.0 6.0 0.00 0.00 0.00 70 1006.5
20190823165338 75 135 1.0 6.0 0.00 0.00 0.00 70 1006.6
20190823164738 74 90 4.0 8.0 0.00 0.00 0.00 71 1006.7
20190823164437 73 94 8.0 8.0 0.00 0.00 0.00 71 1006.5
20190823163533 72 49 3.0 7.0 0.00 0.00 0.00 75 1006.5
20190823163232 71 87 4.0 9.0 0.00 0.00 0.00 74 1006.6
20190823162930 71 85 8.0 10.0 0.00 0.00 0.00 75 1006.5
20190823162629 70 117 7.0 10.0 0.00 0.00 0.00 76 1006.5
20190823162028 70 142 2.0 9.0 0.00 0.00 0.00 78 1006.6
20190823161725 69 123 7.0 9.0 0.00 0.00 0.00 78 1006.7
20190823161427 69 102 7.0 8.0 0.00 0.00 0.00 78 1006.6
20190823161125 69 90 6.0 12.0 0.00 0.00 0.00 78 1006.6
20190823160822 69 87 10.0 10.0 0.00 0.00 0.00 79 1006.4
20190823160521 69 85 7.0 9.0 0.00 0.00 0.00 79 1006.3
20190823160220 68 96 6.0 7.0 0.00 0.00 0.00 80 1006.1
20190823155920 68 90 7.0 8.0 0.00 0.00 0.00 81 1006.0
20190823155316 67 90 5.0 9.0 0.00 0.00 0.00 81 1006.0
20190823155017 67 96 6.0 10.0 0.00 0.00 0.00 82 1006.1
20190823154715 67 92 10.0 10.0 0.00 0.00 0.00 82 1005.8
20190823154413 67 103 7.0 9.0 0.00 0.00 0.00 83 1005.9
20190823154112 67 105 6.0 8.0 0.00 0.00 0.00 83 1005.8
20190823153813 67 92 6.0 9.0 0.00 0.00 0.00 83 1005.8
20190823153211 67 121 5.0 8.0 0.00 0.00 0.00 84 1006.0
20190823152909 67 90 8.0 11.0 0.00 0.00 0.00 84 1005.9
20190823152608 66 101 7.0 8.0 0.00 0.00 0.00 85 1006.0
20190823152006 66 90 9.0 9.0 0.00 0.00 0.00 84 1006.0
20190823151705 66 103 8.0 8.0 0.00 0.00 0.00 85 1005.9
20190823151404 66 130 8.0 11.0 0.00 0.00 0.00 85 1005.8
20190823151101 66 108 6.0 7.0 0.00 0.00 0.00 85 1005.9
20190823150459 66 121 4.0 9.0 0.00 0.00 0.00 85 1005.8
20190823150159 66 99 6.0 10.0 0.00 0.00 0.00 85 1005.7
20190823145557 66 96 6.0 9.0 0.00 0.00 0.00 86 1005.5
20190823144953 66 105 5.0 8.0 0.00 0.00 0.00 86 1005.6
20190823144652 66 78 6.0 8.0 0.00 0.00 0.00 86 1005.4
20190823144052 66 90 7.0 7.0 0.00 0.00 0.00 86 1005.6
20190823143148 66 90 2.0 4.0 0.00 0.00 0.00 87 1005.4
20190823142546 66 90 2.0 3.0 0.00 0.00 0.00 87 1005.3
20190823142244 66 45 0.0 2.0 0.00 0.00 0.00 87 1005.3
20190823141944 66 90 1.0 3.0 0.00 0.00 0.00 87 1005.3
20190823141643 66 0 2.0 3.0 0.00 0.00 0.00 87 1005.3
20190823141340 66 0 0.0 3.0 0.00 0.00 0.00 87 1005.3
20190823141043 66 135 1.0 3.0 0.00 0.00 0.00 88 1005.3
20190823140739 66 90 3.0 3.0 0.00 0.00 0.00 88 1005.2
20190823140438 66 0 1.0 4.0 0.00 0.00 0.00 88 1005.3
20190823140137 65 90 2.0 3.0 0.00 0.00 0.00 88 1005.2
20190823135834 65 90 2.0 3.0 0.00 0.00 0.00 88 1005.3
20190823135535 65 90 2.0 2.0 0.00 0.00 0.00 88 1005.1
20190823135234 65 135 0.0 3.0 0.00 0.00 0.00 88 1005.1
20190823134931 65 225 1.0 1.0 0.00 0.00 0.00 88 1005.1
20190823134630 65 180 1.0 2.0 0.00 0.00 0.00 88 1005.1
20190823134329 65 180 2.0 2.0 0.00 0.00 0.00 88 1005.1
20190823134029 65 180 1.0 3.0 0.00 0.00 0.00 88 1005.0
20190823133728 65 148 1.0 3.0 0.00 0.00 0.00 88 1005.0
20190823133426 65 211 0.0 2.0 0.00 0.00 0.00 88 1005.1
20190823133124 65 168 1.0 2.0 0.00 0.00 0.00 88 1005.0
20190823132823 65 180 1.0 2.0 0.00 0.00 0.00 88 1004.9
20190823132524 65 180 1.0 2.0 0.00 0.00 0.00 88 1005.0
20190823132222 65 180 0.0 4.0 0.00 0.00 0.00 88 1004.9
20190823131922 65 114 3.0 4.0 0.00 0.00 0.00 88 1004.6
20190823131619 65 135 0.0 4.0 0.00 0.00 0.00 88 1004.7
20190823131318 65 180 1.0 4.0 0.00 0.00 0.00 88 1004.7
20190823131017 65 144 1.0 3.0 0.00 0.00 0.00 88 1004.7
20190823130716 65 135 2.0 2.0 0.00 0.00 0.00 88 1004.8
20190823125511 65 45 2.0 4.0 0.00 0.00 0.00 89 1004.6
20190823125210 65 225 0.0 1.0 0.00 0.00 0.00 89 1004.4
20190823124911 65 225 0.0 0.0 0.00 0.00 0.00 89 1004.5
20190823124608 65 225 0.0 1.0 0.00 0.00 0.00 89 1004.5
20190823124007 65 225 0.0 2.0 0.00 0.00 0.00 89 1004.6
20190823123706 65 225 1.0 1.0 0.00 0.00 0.00 89 1004.4
20190823123405 65 225 0.0 0.0 0.00 0.00 0.00 90 1004.5
20190823123103 65 225 0.0 0.0 0.00 0.00 0.00 89 1004.3
20190823122802 65 225 0.0 0.0 0.00 0.00 0.00 89 1004.2
20190823122159 65 225 0.0 1.0 0.00 0.00 0.00 89 1004.2
20190823121858 65 225 0.0 2.0 0.00 0.00 0.00 90 1004.2
20190823121559 65 0 1.0 2.0 0.00 0.00 0.00 91 1004.2
20190823121256 65 0 2.0 2.0 0.00 0.00 0.00 90 1004.3
20190823120956 65 0 0.0 1.0 0.00 0.00 0.00 90 1004.2
20190823120655 65 0 0.0 2.0 0.00 0.00 0.00 90 1004.1
20190823120352 65 45 1.0 3.0 0.00 0.00 0.00 90 1004.0
20190823115750 65 45 2.0 3.0 0.00 0.00 0.00 90 1003.8
20190823115450 65 58 3.0 3.0 0.00 0.00 0.00 90 1003.9
20190823115149 65 90 1.0 2.0 0.00 0.00 0.00 90 1003.9
20190823114847 65 90 0.0 1.0 0.00 0.00 0.00 90 1004.0
20190823114546 65 90 0.0 2.0 0.00 0.00 0.00 89 1003.9
20190823114245 65 90 1.0 1.0 0.00 0.00 0.00 90 1003.9
20190823113944 65 270 0.0 3.0 0.00 0.00 0.00 90 1004.1
20190823113644 65 319 2.0 2.0 0.00 0.00 0.00 90 1004.0
20190823113341 65 315 1.0 3.0 0.00 0.00 0.00 90 1003.9
20190823113040 65 270 4.0 4.0 0.00 0.00 0.00 90 1003.8
20190823112438 65 270 2.0 3.0 0.00 0.00 0.00 90 1003.9
20190823112138 65 0 2.0 2.0 0.00 0.00 0.00 90 1004.0
20190823111837 65 0 2.0 2.0 0.00 0.00 0.00 91 1004.0
20190823111536 65 0 0.0 1.0 0.00 0.00 0.00 90 1004.1
20190823111236 65 0 0.0 1.0 0.00 0.00 0.00 90 1003.9
20190823110933 65 0 0.0 1.0 0.00 0.00 0.00 91 1003.9
20190823110633 65 0 1.0 1.0 0.00 0.00 0.00 91 1004.0
20190823110330 65 0 0.0 1.0 0.00 0.00 0.00 90 1004.0
20190823105729 65 0 0.0 1.0 0.00 0.00 0.00 90 1004.0
20190823105429 65 0 1.0 1.0 0.00 0.00 0.00 90 1003.9
20190823104825 65 0 0.0 0.0 0.00 0.00 0.00 91 1004.0
20190823104525 65 0 0.0 1.0 0.00 0.00 0.00 90 1004.0
20190823104223 65 0 0.0 1.0 0.00 0.00 0.00 91 1003.9
20190823103921 65 0 0.0 1.0 0.00 0.00 0.00 91 1004.0
20190823103620 65 0 0.0 1.0 0.00 0.00 0.00 91 1003.9
20190823103319 65 0 0.0 1.0 0.00 0.00 0.00 91 1004.0
20190823103018 65 0 1.0 1.0 0.00 0.00 0.00 91 1004.1
20190823102717 65 0 1.0 1.0 0.00 0.00 0.00 91 1004.1
20190823102416 65 0 0.0 0.0 0.00 0.00 0.00 91 1004.1
20190823102115 65 0 0.0 1.0 0.00 0.00 0.00 90 1004.1
20190823101818 65 0 0.0 0.0 0.00 0.00 0.00 91 1004.0
20190823101211 65 0 1.0 1.0 0.00 0.00 0.00 91 1004.1
20190823100912 65 0 0.0 1.0 0.00 0.00 0.00 91 1004.0
20190823100610 65 0 0.0 1.0 0.00 0.00 0.00 91 1004.1
20190823095708 64 0 1.0 1.0 0.00 0.00 0.00 91 1004.1
20190823095407 64 0 0.0 2.0 0.00 0.00 0.00 91 1004.1
20190823095104 64 0 0.0 2.0 0.00 0.00 0.00 91 1004.0
20190823094803 64 0 1.0 1.0 0.00 0.00 0.00 91 1003.9
20190823094503 64 0 1.0 2.0 0.00 0.00 0.00 91 1004.0
20190823094203 64 0 1.0 2.0 0.00 0.00 0.00 91 1003.9
20190823093600 64 0 0.0 2.0 0.00 0.00 0.00 91 1003.9
20190823093258 64 56 1.0 2.0 0.00 0.00 0.00 91 1003.9
20190823092959 64 90 0.0 1.0 0.00 0.00 0.00 91 1004.0
20190823092655 64 135 0.0 1.0 0.00 0.00 0.00 91 1003.8
20190823092354 64 225 0.0 2.0 0.00 0.00 0.00 91 1003.9
20190823091753 64 292 1.0 2.0 0.00 0.00 0.00 91 1003.9
20190823091452 64 272 1.0 2.0 0.00 0.00 0.00 91 1004.0
20190823091151 64 135 1.0 2.0 0.00 0.00 0.00 91 1003.7
20190823090850 64 344 2.0 3.0 0.00 0.00 0.00 91 1003.8
20190823090548 64 0 2.0 3.0 0.00 0.00 0.00 91 1003.8
20190823090246 64 120 2.0 2.0 0.00 0.00 0.00 91 1003.8
20190823085945 64 54 1.0 2.0 0.00 0.00 0.00 91 1003.8